FW6870 Weather Reports


Display with metric or nautical units.
time (UTC)temp
F
wind
direction
speed
MPH
gust
MPH
rain 1hr
in
rain 24hr
in
rain mn
in
humidity
%
barometer
mb
20260831084542 73 127 2.0 7.0 0.00 0.00 0.00 91 1021.8
20260831083034 73 105 4.0 7.0 0.00 0.00 0.00 92 1021.8
20260831081538 73 117 3.0 6.0 0.00 0.00 0.00 93 1021.7
20260831080037 73 107 4.0 8.0 0.00 0.00 0.00 94 1021.5
20260831074538 74 87 5.0 7.0 0.00 0.00 0.00 93 1021.5
20260831073036 74 99 2.0 7.0 0.00 0.00 0.00 92 1021.5
20260831071551 74 80 5.0 9.0 0.00 0.00 0.00 92 1021.4
20260831070036 74 65 5.0 8.0 0.00 0.00 0.00 91 1021.6
20260831064534 74 80 6.0 8.0 0.00 0.00 0.00 91 1021.6
20260831063038 74 67 4.0 7.0 0.00 0.00 0.00 91 1021.7
20260831061535 74 57 4.0 7.0 0.00 0.00 0.00 89 1021.7
20260831060045 75 60 4.0 6.0 0.00 0.00 0.00 87 1021.7
20260831054534 75 83 3.0 6.0 0.00 0.00 0.00 86 1021.8
20260831053046 75 98 3.0 6.0 0.00 0.00 0.00 85 1021.8
20260831051537 75 88 3.0 6.0 0.00 0.00 0.00 85 1021.8
20260831050037 76 98 2.0 6.0 0.00 0.00 0.00 85 1021.8
20260831044536 76 70 3.0 6.0 0.00 0.00 0.00 84 1021.9
20260831043042 76 117 3.0 6.0 0.00 0.00 0.00 84 1021.8
20260831041541 76 97 4.0 8.0 0.00 0.00 0.00 84 1021.9
20260831040037 76 84 3.0 9.0 0.00 0.00 0.00 83 1022.0
20260831034534 76 57 6.0 9.0 0.00 0.00 0.00 82 1022.0
20260831033048 77 81 4.0 8.0 0.00 0.00 0.00 80 1022.0
20260831031536 79 79 3.0 6.0 0.00 0.00 0.00 77 1022.0
20260831030036 80 144 3.0 5.0 0.00 0.00 0.00 75 1022.0
20260831024535 80 144 3.0 4.0 0.00 0.00 0.00 75 1021.9
20260831023038 80 143 3.0 5.0 0.00 0.00 0.00 74 1022.0
20260831021539 80 146 3.0 6.0 0.00 0.00 0.00 74 1022.1
20260831020059 80 154 2.0 6.0 0.00 0.00 0.00 73 1022.0
20260831014537 80 150 3.0 6.0 0.00 0.00 0.00 72 1022.0
20260831013035 81 146 3.0 5.0 0.00 0.00 0.00 71 1021.8
20260831011536 81 140 4.0 5.0 0.00 0.00 0.00 70 1021.7
20260831010036 81 142 3.0 5.0 0.00 0.00 0.00 69 1021.4
20260831004544 82 135 2.0 4.0 0.00 0.00 0.00 69 1021.2
20260831003033 82 136 2.0 4.0 0.00 0.00 0.00 67 1021.3
20260831001534 83 130 3.0 4.0 0.00 0.00 0.00 66 1021.0
20260831000036 83 133 2.0 4.0 0.00 0.00 0.00 65 1021.0
20260830234542 84 135 2.0 4.0 0.00 0.00 0.00 64 1020.8
20260830233040 85 121 2.0 7.0 0.00 0.00 0.00 62 1020.8
20260830231536 85 124 3.0 5.0 0.00 0.00 0.00 61 1020.7
20260830230034 85 130 3.0 7.0 0.00 0.00 0.00 59 1020.8
20260830224540 85 136 3.0 7.0 0.00 0.00 0.00 60 1020.6
20260830223038 85 128 4.0 8.0 0.00 0.00 0.00 61 1020.6
20260830221545 86 130 4.0 8.0 0.00 0.00 0.00 60 1020.6
20260830220040 86 154 4.0 9.0 0.00 0.00 0.00 59 1020.7
20260830214542 86 149 5.0 11.0 0.00 0.00 0.00 58 1020.9
20260830213046 86 123 4.0 9.0 0.00 0.00 0.00 59 1020.9
20260830211551 86 163 6.0 12.0 0.00 0.00 0.00 60 1021.1
20260830210050 86 138 6.0 9.0 0.00 0.00 0.00 60 1020.9
20260830204535 85 140 5.0 11.0 0.00 0.00 0.00 62 1021.2
20260830203045 85 87 5.0 12.0 0.00 0.00 0.00 64 1021.1
20260830201534 85 126 3.0 13.0 0.00 0.00 0.00 65 1021.0
20260830200037 85 162 7.0 11.0 0.00 0.00 0.00 65 1021.4
20260830194539 85 141 8.0 14.0 0.00 0.00 0.00 65 1021.6
20260830193036 85 153 4.0 10.0 0.00 0.00 0.00 65 1021.7
20260830191538 85 65 5.0 11.0 0.00 0.00 0.00 65 1021.8
20260830190035 84 109 2.0 11.0 0.00 0.00 0.00 66 1022.0
20260830184538 85 146 6.0 10.0 0.00 0.00 0.00 65 1022.3
20260830183040 83 98 3.0 10.0 0.00 0.00 0.00 66 1022.4
20260830181535 83 152 5.0 9.0 0.00 0.00 0.00 70 1022.7
20260830180035 83 90 3.0 10.0 0.00 0.00 0.00 71 1022.9
20260830174541 83 153 2.0 9.0 0.00 0.00 0.00 70 1023.1
20260830173034 83 175 4.0 11.0 0.00 0.00 0.00 70 1023.2
20260830171536 83 360 4.0 10.0 0.00 0.00 0.00 69 1023.5
20260830170034 83 132 1.0 9.0 0.00 0.00 0.00 70 1023.6
20260830164541 82 163 3.0 10.0 0.00 0.00 0.00 72 1023.8
20260830163036 81 132 1.0 10.0 0.00 0.00 0.00 77 1023.9
20260830161551 80 125 4.0 8.0 0.00 0.00 0.00 77 1024.1
20260830160036 80 96 5.0 11.0 0.00 0.00 0.00 76 1024.2
20260830154539 80 142 5.0 10.0 0.00 0.00 0.00 77 1024.3
20260830153049 79 116 7.0 10.0 0.00 0.00 0.00 79 1024.3
20260830151536 78 148 5.0 9.0 0.00 0.00 0.00 83 1024.3
20260830150034 78 155 3.0 9.0 0.00 0.00 0.00 85 1024.3
20260830144535 78 140 4.0 9.0 0.00 0.00 0.00 86 1024.5
20260830143042 77 94 3.0 7.0 0.00 0.00 0.00 88 1024.4
20260830141534 77 132 5.0 9.0 0.00 0.00 0.00 88 1024.4
20260830140034 76 82 2.0 7.0 0.00 0.00 0.00 91 1024.3
20260830134539 75 131 3.0 7.0 0.00 0.00 0.00 92 1024.2
20260830133035 74 72 3.0 5.0 0.00 0.00 0.00 94 1024.3
20260830131540 73 117 1.0 8.0 0.00 0.00 0.00 95 1024.3
20260830130051 73 122 4.0 7.0 0.00 0.00 0.00 96 1024.4
20260830124536 72 117 2.0 6.0 0.00 0.00 0.00 96 1024.2
20260830123035 72 120 1.0 5.0 0.00 0.00 0.00 97 1024.2
20260830121537 71 123 2.0 7.0 0.00 0.00 0.00 97 1024.0
20260830120042 71 103 4.0 7.0 0.00 0.00 0.00 97 1023.9
20260830114603 71 100 3.0 7.0 0.00 0.00 0.00 97 1023.8
20260830113033 71 123 3.0 7.0 0.00 0.00 0.00 97 1023.5
20260830111536 71 119 3.0 6.0 0.00 0.00 0.00 96 1023.2
20260830110036 72 90 2.0 6.0 0.00 0.00 0.00 96 1023.0
20260830104538 72 90 3.0 6.0 0.00 0.00 0.00 96 1022.7
20260830103035 72 90 3.0 4.0 0.00 0.00 0.00 96 1022.5
20260830101548 72 86 3.0 7.0 0.00 0.00 0.00 96 1022.5
20260830100036 72 92 3.0 6.0 0.00 0.00 0.00 95 1022.3
20260830094535 72 126 3.0 5.0 0.00 0.00 0.00 95 1022.6
20260830093033 72 124 3.0 4.0 0.00 0.00 0.00 95 1022.4
20260830091538 72 124 3.0 6.0 0.00 0.00 0.00 94 1022.4
20260830090034 73 117 4.0 7.0 0.00 0.00 0.00 94 1022.5